When you browse on this site, cookies collect data to enhance your experience and personalize the content and advertising you see.
Visit our Privacy Policy to learn more. By continuing to use the site, you agree to this use of cookies and data.
  • In United Kingdom
  • List of Countries
  • For 7 days
  • Water Temperature
  • Satellite Maps
  • Weather Map
  • Weather Widgets
  • user-avatar
    Login

    Hourly Weather Yangiaryk

    Today, 26 June, Wednesday

    Time Temperature Precipitation Wind Pressure Humidity
    00:00 +27°C° 0 mm 2 mps 701 mmHg 30%
    01:00 +26°C° 0 mm 2 mps 701 mmHg 31%
    02:00 +25°C° 0 mm 1 mps 700 mmHg 31%
    03:00 +25°C° 0 mm 2 mps 700 mmHg 31%
    04:00 +25°C° 0 mm 2 mps 700 mmHg 31%
    05:00 +25°C° 0 mm 2 mps 700 mmHg 31%
    06:00 +27°C° 0 mm 1 mps 700 mmHg 28%
    07:00 +29°C° 0 mm 1 mps 701 mmHg 26%
    08:00 +31°C° 0 mm 1 mps 701 mmHg 23%
    09:00 +32°C° 0 mm 1 mps 701 mmHg 22%
    10:00 +34°C° 0 mm 2 mps 700 mmHg 21%
    11:00 +35°C° 0 mm 2 mps 700 mmHg 20%
    12:00 +36°C° 0 mm 2 mps 700 mmHg 19%
    13:00 +36°C° 0 mm 2 mps 700 mmHg 17%
    14:00 +37°C° 0 mm 2 mps 700 mmHg 16%
    15:00 +37°C° 0 mm 2 mps 699 mmHg 16%
    16:00 +37°C° 0 mm 2 mps 699 mmHg 16%
    17:00 +37°C° 0 mm 2 mps 699 mmHg 15%
    18:00 +35°C° 0 mm 2 mps 699 mmHg 19%
    19:00 +32°C° 0 mm 2 mps 699 mmHg 22%
    20:00 +30°C° 0 mm 2 mps 700 mmHg 25%
    21:00 +30°C° 0 mm 2 mps 699 mmHg 26%
    22:00 +29°C° 0 mm 2 mps 699 mmHg 28%
    23:00 +28°C° 0 mm 2 mps 699 mmHg 30%

    Tomorrow, 27 June, Thursday

    Time Temperature Precipitation Wind Pressure Humidity
    00:00 +27°C° 0 mm 2 mps 699 mmHg 31%
    01:00 +27°C° 0 mm 1 mps 698 mmHg 32%
    02:00 +26°C° 0 mm 1 mps 698 mmHg 34%
    03:00 +26°C° 0 mm 1 mps 698 mmHg 35%
    04:00 +25°C° 0 mm 1 mps 698 mmHg 36%
    05:00 +25°C° 0 mm 1 mps 698 mmHg 37%
    06:00 +27°C° 0 mm 1 mps 698 mmHg 34%
    07:00 +29°C° 0 mm 1 mps 698 mmHg 30%
    08:00 +31°C° 0 mm 1 mps 698 mmHg 26%
    09:00 +32°C° 0 mm 2 mps 698 mmHg 25%
    10:00 +34°C° 0 mm 2 mps 699 mmHg 23%
    11:00 +35°C° 0 mm 3 mps 699 mmHg 22%
    12:00 +35°C° 0.1 mm 3 mps 698 mmHg 22%
    13:00 +35°C° 0.1 mm 3 mps 698 mmHg 23%
    14:00 +36°C° 0.1 mm 4 mps 698 mmHg 23%
    15:00 +35°C° 0.2 mm 5 mps 698 mmHg 25%
    16:00 +34°C° 0.2 mm 6 mps 698 mmHg 27%
    17:00 +32°C° 0.2 mm 7 mps 698 mmHg 28%
    18:00 +32°C° 0 mm 6 mps 698 mmHg 28%
    19:00 +30°C° 0 mm 5 mps 698 mmHg 28%
    20:00 +29°C° 0 mm 4 mps 699 mmHg 28%
    21:00 +28°C° 0 mm 3 mps 699 mmHg 29%
    22:00 +27°C° 0 mm 2 mps 698 mmHg 29%
    23:00 +26°C° 0 mm 2 mps 698 mmHg 30%

    Day after tomorrow, 28 June, Friday

    Time Temperature Precipitation Wind Pressure Humidity
    00:00 +25°C° 0 mm 2 mps 698 mmHg 31%
    01:00 +25°C° 0 mm 2 mps 697 mmHg 32%
    02:00 +24°C° 0 mm 2 mps 697 mmHg 33%
    03:00 +24°C° 0 mm 2 mps 697 mmHg 34%
    04:00 +24°C° 0 mm 1 mps 697 mmHg 35%
    05:00 +23°C° 0 mm 1 mps 697 mmHg 36%
    06:00 +26°C° 0 mm 1 mps 697 mmHg 32%
    07:00 +28°C° 0 mm 1 mps 697 mmHg 28%
    08:00 +31°C° 0 mm 1 mps 698 mmHg 24%
    09:00 +32°C° 0 mm 1 mps 698 mmHg 22%
    10:00 +34°C° 0 mm 2 mps 697 mmHg 21%
    11:00 +36°C° 0 mm 2 mps 697 mmHg 20%
    12:00 +36°C° 0 mm 2 mps 697 mmHg 19%
    13:00 +37°C° 0 mm 2 mps 696 mmHg 18%
    14:00 +38°C° 0 mm 2 mps 696 mmHg 16%
    15:00 +37°C° 0 mm 1 mps 696 mmHg 16%
    16:00 +37°C° 0 mm 1 mps 696 mmHg 16%
    17:00 +37°C° 0 mm 1 mps 696 mmHg 16%
    18:00 +36°C° 0.1 mm 2 mps 696 mmHg 20%
    19:00 +34°C° 0.1 mm 4 mps 696 mmHg 24%
    20:00 +32°C° 0.1 mm 5 mps 696 mmHg 29%
    21:00 +30°C° 0 mm 4 mps 697 mmHg 32%
    22:00 +29°C° 0 mm 3 mps 697 mmHg 35%
    23:00 +28°C° 0 mm 1 mps 697 mmHg 37%

    29 June, Saturday

    Time Temperature Precipitation Wind Pressure Humidity
    00:00 +27°C° 0 mm 1 mps 697 mmHg 38%
    01:00 +27°C° 0 mm 1 mps 697 mmHg 38%
    02:00 +26°C° 0 mm 1 mps 697 mmHg 39%
    03:00 +26°C° 0.1 mm 1 mps 697 mmHg 40%
    04:00 +26°C° 0.1 mm 1 mps 697 mmHg 42%
    05:00 +26°C° 0.1 mm 1 mps 697 mmHg 43%
    06:00 +27°C° 0.1 mm 1 mps 697 mmHg 40%
    07:00 +28°C° 0.1 mm 1 mps 697 mmHg 36%
    08:00 +30°C° 0.1 mm 1 mps 697 mmHg 33%
    09:00 +31°C° 0 mm 1 mps 697 mmHg 31%
    10:00 +34°C° 0 mm 2 mps 697 mmHg 29%
    11:00 +35°C° 0 mm 2 mps 697 mmHg 27%
    12:00 +36°C° 0.1 mm 2 mps 697 mmHg 25%
    13:00 +37°C° 0.1 mm 2 mps 697 mmHg 23%
    14:00 +38°C° 0.1 mm 2 mps 697 mmHg 21%
    15:00 +38°C° 0.2 mm 3 mps 697 mmHg 22%
    16:00 +37°C° 0.2 mm 4 mps 697 mmHg 23%
    17:00 +37°C° 0.2 mm 5 mps 697 mmHg 24%
    18:00 +35°C° 0.1 mm 5 mps 697 mmHg 27%
    19:00 +33°C° 0.1 mm 6 mps 697 mmHg 31%
    20:00 +30°C° 0.1 mm 6 mps 697 mmHg 35%
    21:00 +29°C° 0 mm 5 mps 697 mmHg 34%
    22:00 +29°C° 0 mm 3 mps 697 mmHg 34%
    23:00 +28°C° 0 mm 2 mps 697 mmHg 33%

    30 June, Sunday

    Time Temperature Precipitation Wind Pressure Humidity
    00:00 +28°C° 0 mm 2 mps 697 mmHg 34%
    01:00 +27°C° 0 mm 2 mps 697 mmHg 36%
    02:00 +27°C° 0 mm 2 mps 696 mmHg 37%
    03:00 +26°C° 0 mm 1 mps 696 mmHg 37%
    04:00 +26°C° 0 mm 1 mps 696 mmHg 38%
    05:00 +25°C° 0 mm 1 mps 696 mmHg 39%
    06:00 +27°C° 0 mm 1 mps 696 mmHg 35%
    07:00 +30°C° 0 mm 1 mps 697 mmHg 31%
    08:00 +32°C° 0 mm 1 mps 697 mmHg 27%
    09:00 +33°C° 0 mm 1 mps 697 mmHg 25%
    10:00 +34°C° 0 mm 1 mps 697 mmHg 24%
    11:00 +37°C° 0 mm 2 mps 697 mmHg 23%
    12:00 +37°C° 0.1 mm 1 mps 697 mmHg 21%
    13:00 +39°C° 0.1 mm 1 mps 697 mmHg 19%
    14:00 +39°C° 0.1 mm 1 mps 697 mmHg 17%
    15:00 +40°C° 0.1 mm 2 mps 697 mmHg 17%
    16:00 +40°C° 0.1 mm 2 mps 697 mmHg 16%
    17:00 +40°C° 0.1 mm 2 mps 697 mmHg 16%
    18:00 +37°C° 0 mm 2 mps 697 mmHg 19%
    19:00 +34°C° 0 mm 1 mps 697 mmHg 23%
    20:00 +32°C° 0 mm 1 mps 697 mmHg 27%
    21:00 +32°C° 0 mm 1 mps 697 mmHg 26%
    22:00 +31°C° 0 mm 2 mps 697 mmHg 26%
    23:00 +31°C° 0 mm 2 mps 698 mmHg 26%

    1 July, Monday

    Time Temperature Precipitation Wind Pressure Humidity
    00:00 +30°C° 0 mm 2 mps 697 mmHg 27%
    01:00 +29°C° 0 mm 2 mps 697 mmHg 28%
    02:00 +29°C° 0 mm 1 mps 697 mmHg 29%
    03:00 +28°C° 0 mm 1 mps 697 mmHg 30%
    04:00 +27°C° 0 mm 1 mps 697 mmHg 32%
    05:00 +27°C° 0 mm 1 mps 697 mmHg 34%
    06:00 +29°C° 0 mm 1 mps 697 mmHg 29%
    07:00 +32°C° 0 mm 1 mps 698 mmHg 25%
    08:00 +35°C° 0 mm 1 mps 698 mmHg 21%
    09:00 +37°C° 0 mm 2 mps 698 mmHg 20%
    10:00 +38°C° 0 mm 2 mps 698 mmHg 20%
    11:00 +39°C° 0 mm 3 mps 698 mmHg 19%
    12:00 +40°C° 0 mm 3 mps 698 mmHg 18%
    13:00 +40°C° 0 mm 3 mps 698 mmHg 17%
    14:00 +41°C° 0 mm 2 mps 698 mmHg 16%
    15:00 +40°C° 0.1 mm 3 mps 698 mmHg 19%
    16:00 +40°C° 0.1 mm 5 mps 698 mmHg 22%
    17:00 +39°C° 0.1 mm 6 mps 698 mmHg 25%
    18:00 +37°C° 0.1 mm 5 mps 698 mmHg 26%
    19:00 +35°C° 0.1 mm 5 mps 698 mmHg 28%
    20:00 +33°C° 0.1 mm 5 mps 698 mmHg 30%
    21:00 +33°C° 0 mm 4 mps 699 mmHg 30%
    22:00 +32°C° 0 mm 4 mps 699 mmHg 29%
    23:00 +31°C° 0 mm 3 mps 699 mmHg 28%
    Show more